Weather History for KDSM - February, 2013

Change the Weather History Date:

Tuesday, February 12, 2013

  Actual Average Record
Temperature  
Mean Temperature 34 °F 26 °F  
Max Temperature 45 °F 35 °F 70 °F (1990)
Min Temperature 23 °F 18 °F -21 °F (1905)
Degree Days  
Heating Degree Days 31 39  
Month to date heating degree days 418 482  
Since 1 July heating degree days 3760 4262  
Cooling Degree Days 0 0  
Month to date cooling degree days 0 0  
Year to date cooling degree days 0 0  
Moisture  
Dew Point 22 °F    
Average Humidity 63    
Maximum Humidity 81    
Minimum Humidity 45    
Precipitation  
Precipitation 0.00 in 0.05 in 0.74 in (1949)
Month to date precipitation 0.54 0.50  
Year to date precipitation 1.65 1.50  
Snow  
Snow 0.00 in 0.30 in 6.50 in (1894)
Month to date snowfall 0.5 3.8  
Since 1 July snowfall 23.5 24.2  
Snow Depth 0.00 in    
Sea Level Pressure  
Sea Level Pressure 30.04 in    
Wind  
Wind Speed 9 mph (SW)    
Max Wind Speed 21 mph    
Max Gust Speed 24 mph    
Visibility 10 miles    
Events      
T = Trace of Precipitation, MM = Missing Value Source: NWS Daily Summary

Daily Weather History Graph

Daily Weather History Graph

Search for Another Location

Airport or City:

Trip Planner

Search our weather history database for the weather conditions in past years. The results will help you decide how hot, cold, wet, or windy it might be!

Date:

Astronomy

Feb. 12, 2013 Rise Set
Actual Time 7:13 AM CST 5:44 PM CST
Civil Twilight 6:44 AM CST 6:13 PM CST
Nautical Twilight 6:12 AM CST 6:46 PM CST
Astronomical Twilight 5:40 AM CST 7:18 PM CST
Moon 8:08 AM CST (2/12) 8:49 PM CST (2/12)
Length of Visible Light 11h 28m
Length of Day
10h 31m
Waxing Crescent, 7% of the Moon is Illuminated
Feb 12
Waxing Crescent
Feb 17
First Quarter
Feb 25
Full
Mar 4
Last Quarter
Mar 11
New

Hourly Weather History & Observations

Time (CST) Temp. Windchill Dew Point Humidity Pressure Visibility Wind Dir Wind Speed Gust Speed Precip Events Conditions
12:54 AM 28.9 °F 21.1 °F 21.0 °F 72% 30.17 in 10.0 mi WNW 8.1 mph - N/A   Overcast
1:54 AM 28.9 °F 20.4 °F 21.0 °F 72% 30.17 in 9.0 mi West 9.2 mph - N/A   Overcast
2:54 AM 28.9 °F 20.4 °F 19.9 °F 69% 30.18 in 10.0 mi West 9.2 mph - N/A   Overcast
3:54 AM 28.0 °F 20.8 °F 19.9 °F 72% 30.14 in 10.0 mi WNW 6.9 mph - N/A   Overcast
4:32 AM 26.1 °F 19.4 °F 19.0 °F 75% 30.10 in 10.0 mi WNW 5.8 mph - N/A   Partly Cloudy
4:54 AM 26.1 °F 21.9 °F 19.0 °F 75% 30.13 in 10.0 mi West 3.5 mph - N/A   Partly Cloudy
5:54 AM 24.1 °F 17.0 °F 18.0 °F 77% 30.14 in 9.0 mi SSW 5.8 mph - N/A   Clear
6:54 AM 23.0 °F 14.7 °F 18.0 °F 81% 30.14 in 7.0 mi SSW 6.9 mph - N/A   Partly Cloudy
7:54 AM 24.1 °F 17.0 °F 19.9 °F 84% 30.13 in 8.0 mi South 5.8 mph - N/A   Clear
8:54 AM 28.0 °F 20.0 °F 21.9 °F 78% 30.10 in 10.0 mi SSW 8.1 mph - N/A   Partly Cloudy
9:54 AM 32.0 °F 24.8 °F 21.9 °F 66% 30.12 in 10.0 mi SW 8.1 mph - N/A   Partly Cloudy
10:54 AM 36.0 °F 29.0 °F 23.0 °F 59% 30.09 in 10.0 mi WSW 9.2 mph - N/A   Scattered Clouds
11:54 AM 39.0 °F 31.4 °F 23.0 °F 53% 30.07 in 10.0 mi SSW 12.7 mph - N/A   Scattered Clouds
12:54 PM 41.0 °F 33.9 °F 21.9 °F 47% 30.02 in 10.0 mi SW 12.7 mph - N/A   Mostly Cloudy
1:54 PM 43.0 °F 36.0 °F 23.0 °F 45% 29.99 in 10.0 mi SW 13.8 mph - N/A   Mostly Cloudy
2:54 PM 45.0 °F 37.6 °F 24.1 °F 44% 29.96 in 10.0 mi WSW 17.3 mph - N/A   Mostly Cloudy
3:54 PM 45.0 °F 38.2 °F 24.1 °F 44% 29.95 in 10.0 mi WSW 15.0 mph - N/A   Mostly Cloudy
4:54 PM 43.0 °F 36.8 °F 26.1 °F 51% 29.95 in 10.0 mi WSW 11.5 mph - N/A   Scattered Clouds
5:54 PM 39.9 °F 34.5 °F 25.0 °F 55% 29.94 in 10.0 mi SW 8.1 mph - N/A   Partly Cloudy
6:54 PM 36.0 °F 29.6 °F 24.1 °F 62% 29.94 in 10.0 mi SSW 8.1 mph - N/A   Clear
7:54 PM 37.0 °F 31.0 °F 25.0 °F 62% 29.93 in 10.0 mi SSW 8.1 mph - N/A   Clear
8:54 PM 36.0 °F 29.6 °F 25.0 °F 64% 29.92 in 10.0 mi SSW 8.1 mph - N/A   Clear
9:54 PM 35.1 °F 29.3 °F 25.0 °F 67% 29.91 in 10.0 mi SSW 6.9 mph - N/A   Clear
10:54 PM 33.1 °F 26.1 °F 24.1 °F 70% 29.91 in 10.0 mi SW 8.1 mph - N/A   Clear
11:54 PM 30.0 °F 23.2 °F 23.0 °F 75% 29.90 in 10.0 mi WSW 6.9 mph - N/A   Clear